M I D A S
Marine Information and Data Acquisition System
Tripno 664 of the Zeeleeuw from 2004-03-10 07:42:12 to 2004-03-10 18:44:59
Back to CruiseResearch ActivitiesStationsMapUnderway DataData graphs

EquipmentUnitsComments
TimeDGPSUTC
LatitudeDGPSDM.mWGS84
LongitudeDGPSDM.mWGS84
SpeedMeteo Stationm/sRelative wind speed
DirectionMeteo StationdegRelative wind direction
TemperatureMeteo Stationdeg CelciusAir temperature
PressureMeteo StationPaAtmospheric pressure
HumidityMeteo Station%Relative humidity
Missing or incorrect values are displayed as -999
Metereological data collected by the RV Zeeleeuw from 2004-03-10 07:42:12 to 2004-03-10 18:44:59
                                                                                    Next 1000 lines
Time Latitude Longitude Speed Direction Temperature Pressure Humidity
2004-03-10 07:42:20 51°13.59 2°56.107 2.4 330 0.9 102800 81
2004-03-10 07:42:26 51°13.59 2°56.107 1.9 324 0.9 102800 81
2004-03-10 07:42:30 51°13.59 2°56.107 3.2 331 0.9 102790 81
2004-03-10 07:42:34 51°13.59 2°56.107 2.3 330 0.9 102790 81
2004-03-10 07:42:40 51°13.59 2°56.107 3.1 328 0.9 102790 82
2004-03-10 07:42:46 51°13.59 2°56.106 3.3 334 0.9 102790 82
2004-03-10 07:42:50 51°13.59 2°56.106 2.6 351 1 102790 82
2004-03-10 07:42:54 51°13.59 2°56.105 1.7 304 1 102790 82
2004-03-10 07:43:00 51°13.59 2°56.102 1.6 306 1 102800 82
2004-03-10 07:43:06 51°13.591 2°56.098 1 246 1 102800 82
2004-03-10 07:43:10 51°13.592 2°56.094 0.9 228 1 102800 82
2004-03-10 07:43:16 51°13.594 2°56.088 0.4 258 1 102800 82
2004-03-10 07:43:20 51°13.595 2°56.084 1.4 273 1 102800 82
2004-03-10 07:43:26 51°13.597 2°56.076 1.6 262 1 102800 82
2004-03-10 07:43:31 51°13.599 2°56.07 1.4 301 1 102800 82
2004-03-10 07:43:36 51°13.6 2°56.063 1.9 290 1 102800 82
2004-03-10 07:43:40 51°13.602 2°56.057 1.8 327 1 102790 81
2004-03-10 07:43:46 51°13.604 2°56.048 0.8 286 1 102790 81
2004-03-10 07:43:51 51°13.605 2°56.04 1.3 258 1 102800 81
2004-03-10 07:43:56 51°13.607 2°56.031 1.3 300 1 102800 81
2004-03-10 07:44:01 51°13.609 2°56.023 1.1 277 1 102800 81
2004-03-10 07:44:06 51°13.612 2°56.014 0.7 215 1 102800 81
2004-03-10 07:44:11 51°13.614 2°56.005 1.3 241 1 102800 82
2004-03-10 07:44:16 51°13.617 2°55.995 2.2 237 1 102800 82
2004-03-10 07:44:20 51°13.619 2°55.988 2.5 257 1 102800 82
2004-03-10 07:44:26 51°13.623 2°55.976 3.5 274 1 102800 82
2004-03-10 07:44:31 51°13.626 2°55.966 3.1 262 1 102800 82
2004-03-10 07:44:36 51°13.63 2°55.956 1.8 208 1 102800 82
2004-03-10 07:44:41 51°13.633 2°55.946 2 246 1 102800 82
2004-03-10 07:44:46 51°13.636 2°55.935 2.1 242 1 102800 82
2004-03-10 07:44:51 51°13.64 2°55.925 2.4 278 1 102800 81
2004-03-10 07:44:56 51°13.644 2°55.915 1.7 266 1 102800 81
2004-03-10 07:45:01 51°13.647 2°55.904 1.3 257 1 102800 81
2004-03-10 07:45:06 51°13.651 2°55.893 2.2 229 1 102800 81
2004-03-10 07:45:11 51°13.654 2°55.883 1.7 221 1 102800 81
2004-03-10 07:45:16 51°13.658 2°55.872 2.4 220 1 102800 81
2004-03-10 07:45:21 51°13.661 2°55.861 2 220 1 102800 81
2004-03-10 07:45:26 51°13.664 2°55.85 1.9 254 1 102800 81
2004-03-10 07:45:31 51°13.667 2°55.839 1.8 255 1 102800 81
2004-03-10 07:45:36 51°13.67 2°55.827 1.2 251 1 102800 81
2004-03-10 07:45:41 51°13.672 2°55.815 1 252 1.1 102790 81
2004-03-10 07:45:46 51°13.674 2°55.804 1.9 243 1.1 102790 81
2004-03-10 07:45:51 51°13.676 2°55.792 2.4 229 1.1 102800 81
2004-03-10 07:45:56 51°13.677 2°55.781 2 264 1.1 102800 81
2004-03-10 07:46:00 51°13.678 2°55.772 1.6 254 1 102790 81
2004-03-10 07:46:06 51°13.679 2°55.761 1.7 232 1 102790 81
2004-03-10 07:46:11 51°13.68 2°55.754 1.7 243 1 102800 81
2004-03-10 07:46:16 51°13.68 2°55.749 0.9 325 1 102800 81
2004-03-10 07:46:20 51°13.681 2°55.746 1.6 301 1 102800 81
2004-03-10 07:46:26 51°13.681 2°55.744 2.1 360 1 102800 81
2004-03-10 07:46:30 51°13.682 2°55.743 1.7 22 1 102800 81
2004-03-10 07:46:35 51°13.682 2°55.743 2.7 351 1 102800 81
2004-03-10 07:46:40 51°13.683 2°55.744 4 27 1.1 102800 81
2004-03-10 07:46:46 51°13.686 2°55.746 5.2 20 1.1 102800 81
2004-03-10 07:46:50 51°13.688 2°55.748 5.2 14 1 102800 81
2004-03-10 07:46:55 51°13.69 2°55.75 4 36 1 102800 81
2004-03-10 07:47:00 51°13.694 2°55.752 4.5 45 1 102790 81
2004-03-10 07:47:05 51°13.697 2°55.753 3.7 63 1 102790 81
2004-03-10 07:47:10 51°13.701 2°55.754 3.7 48 1 102790 81
2004-03-10 07:47:12 51°13.703 2°55.754 4.1 53 1 102790 81
2004-03-10 07:47:20 51°13.709 2°55.753 3.7 63 1 102790 81
2004-03-10 07:47:26 51°13.714 2°55.751 2.6 54 1 102790 81
2004-03-10 07:47:30 51°13.718 2°55.749 2.7 77 1 102790 81
2004-03-10 07:47:34 51°13.722 2°55.747 3 54 1 102790 81
2004-03-10 07:47:40 51°13.728 2°55.742 4.2 73 1 102790 81
2004-03-10 07:47:44 51°13.731 2°55.737 2.4 81 1 102790 81
2004-03-10 07:47:50 51°13.738 2°55.73 2.2 68 1 102790 81
2004-03-10 07:47:56 51°13.744 2°55.723 3.2 50 1 102790 81
2004-03-10 07:48:00 51°13.748 2°55.718 5.2 49 1 102790 81
2004-03-10 07:48:06 51°13.754 2°55.709 3.9 57 1 102790 81
2004-03-10 07:48:10 51°13.759 2°55.704 4 66 1.1 102800 81
2004-03-10 07:48:16 51°13.766 2°55.695 4.4 81 1.1 102800 81
2004-03-10 07:48:20 51°13.771 2°55.688 3.2 83 1.1 102800 81
2004-03-10 07:48:26 51°13.78 2°55.679 2.9 43 1.1 102800 81
2004-03-10 07:48:30 51°13.785 2°55.673 3.8 58 1.1 102790 81
2004-03-10 07:48:35 51°13.793 2°55.665 3.4 34 1.1 102790 81
2004-03-10 07:48:40 51°13.801 2°55.657 3.4 18 1 102820 80
2004-03-10 07:48:46 51°13.81 2°55.648 4.5 25 1 102820 80
2004-03-10 07:48:50 51°13.817 2°55.642 4.7 32 1 102820 80
2004-03-10 07:48:55 51°13.826 2°55.635 5.6 28 1 102820 80
2004-03-10 07:49:00 51°13.835 2°55.627 5.1 24 1.1 102820 80
2004-03-10 07:49:04 51°13.842 2°55.622 5.6 50 1.1 102820 80
2004-03-10 07:49:10 51°13.853 2°55.614 5.9 36 1.1 102820 80
2004-03-10 07:49:15 51°13.862 2°55.607 4.8 48 1.1 102820 80
2004-03-10 07:49:20 51°13.872 2°55.599 6.8 55 1.1 102820 80
2004-03-10 07:49:24 51°13.879 2°55.594 7.1 58 1.1 102820 80
2004-03-10 07:49:30 51°13.89 2°55.585 6 53 1.1 102810 80
2004-03-10 07:49:35 51°13.9 2°55.578 6.4 64 1.1 102810 80
2004-03-10 07:49:40 51°13.91 2°55.571 5.9 54 1.1 102820 80
2004-03-10 07:49:46 51°13.922 2°55.562 4.5 59 1.1 102820 80
2004-03-10 07:49:50 51°13.929 2°55.556 7.2 58 1 102810 80
2004-03-10 07:49:55 51°13.94 2°55.549 4.7 61 1 102810 80
2004-03-10 07:50:00 51°13.95 2°55.542 5.3 42 1.1 102810 80
2004-03-10 07:50:04 51°13.959 2°55.536 4.1 64 1.1 102810 80
2004-03-10 07:50:10 51°13.971 2°55.528 4.3 48 1 102810 80
2004-03-10 07:50:16 51°13.983 2°55.519 6.6 64 1 102810 80
2004-03-10 07:50:20 51°13.992 2°55.514 5.9 62 1 102810 80
2004-03-10 07:50:25 51°14.002 2°55.506 5.1 52 1 102810 80
2004-03-10 07:50:30 51°14.012 2°55.5 5.4 58 1 102810 80
2004-03-10 07:50:32 51°14.016 2°55.497 5.4 67 1 102810 80
2004-03-10 07:50:40 51°14.032 2°55.485 3.8 59 1 102810 80
2004-03-10 07:50:46 51°14.044 2°55.476 5.4 53 1 102810 80
2004-03-10 07:50:50 51°14.052 2°55.47 6 54 1.1 102810 80
2004-03-10 07:50:56 51°14.064 2°55.462 4.5 57 1.1 102810 80
2004-03-10 07:51:00 51°14.072 2°55.456 5.8 32 1.1 102810 80
2004-03-10 07:51:06 51°14.084 2°55.446 5.5 39 1.1 102810 80
2004-03-10 07:51:10 51°14.092 2°55.44 4.9 44 1.1 102810 80
2004-03-10 07:51:15 51°14.102 2°55.433 6.1 38 1.1 102810 80
2004-03-10 07:51:20 51°14.112 2°55.425 5.1 51 1.1 102810 80
2004-03-10 07:51:26 51°14.124 2°55.416 7 58 1.1 102810 80
2004-03-10 07:51:30 51°14.132 2°55.409 6.3 59 1.1 102810 80
2004-03-10 07:51:36 51°14.145 2°55.399 7.5 52 1.1 102810 80
2004-03-10 07:51:40 51°14.153 2°55.392 8.3 67 1 102810 80
2004-03-10 07:51:46 51°14.165 2°55.38 6.5 67 1 102810 80
2004-03-10 07:51:50 51°14.173 2°55.372 5.1 63 1 102810 80
2004-03-10 07:51:55 51°14.184 2°55.362 6.6 52 1 102810 80
2004-03-10 07:52:00 51°14.195 2°55.351 6.6 61 1 102800 80
2004-03-10 07:52:06 51°14.208 2°55.336 5.3 55 1 102800 80
2004-03-10 07:52:10 51°14.217 2°55.326 5.5 47 1 102800 80
2004-03-10 07:52:16 51°14.231 2°55.309 6.3 59 1 102800 80
2004-03-10 07:52:20 51°14.239 2°55.297 6.2 57 1 102800 80
2004-03-10 07:52:26 51°14.253 2°55.277 6.2 65 1 102800 80
2004-03-10 07:52:30 51°14.261 2°55.264 4.9 58 1 102800 80
2004-03-10 07:52:34 51°14.27 2°55.249 5.1 37 1 102800 80
2004-03-10 07:52:40 51°14.282 2°55.226 5 45 1 102800 80
2004-03-10 07:52:44 51°14.291 2°55.21 4.1 30 1 102800 80
2004-03-10 07:52:50 51°14.303 2°55.186 5.9 43 1 102800 80
2004-03-10 07:52:55 51°14.313 2°55.166 5.5 52 1 102800 80
2004-03-10 07:53:00 51°14.324 2°55.145 6.2 64 1 102800 80
2004-03-10 07:53:06 51°14.336 2°55.121 6 48 1 102800 80
2004-03-10 07:53:10 51°14.345 2°55.104 5.5 62 1.1 102800 80
2004-03-10 07:53:15 51°14.355 2°55.083 3.7 44 1.1 102800 80
2004-03-10 07:53:20 51°14.366 2°55.062 4.5 58 1.1 102800 81
2004-03-10 07:53:26 51°14.378 2°55.037 6.7 64 1.1 102800 81
2004-03-10 07:53:30 51°14.386 2°55.019 5.8 83 1.1 102800 81
2004-03-10 07:53:35 51°14.396 2°54.997 5.9 86 1.1 102800 81
2004-03-10 07:53:40 51°14.406 2°54.975 6.3 87 1.1 102800 81
2004-03-10 07:53:44 51°14.413 2°54.956 6.3 84 1.1 102800 81
2004-03-10 07:53:50 51°14.424 2°54.928 6.1 80 1.1 102800 81
2004-03-10 07:53:56 51°14.436 2°54.9 5.9 83 1.1 102800 81
2004-03-10 07:54:00 51°14.443 2°54.881 5 76 1.1 102800 81
2004-03-10 07:54:06 51°14.453 2°54.852 5.5 79 1.1 102800 81
2004-03-10 07:54:10 51°14.46 2°54.834 6.6 87 1.2 102790 81
2004-03-10 07:54:15 51°14.467 2°54.811 5.6 85 1.2 102790 81
2004-03-10 07:54:20 51°14.474 2°54.789 5.8 90 1.2 102790 81
2004-03-10 07:54:24 51°14.479 2°54.771 5.3 79 1.2 102790 81
2004-03-10 07:54:30 51°14.487 2°54.746 6.4 92 1.2 102800 81
2004-03-10 07:54:35 51°14.492 2°54.724 6.1 90 1.2 102800 81
2004-03-10 07:54:40 51°14.496 2°54.703 5.6 95 1.2 102800 81
2004-03-10 07:54:46 51°14.501 2°54.677 6 98 1.2 102800 81
2004-03-10 07:54:50 51°14.505 2°54.66 6.2 95 1.2 102810 81
2004-03-10 07:54:55 51°14.508 2°54.64 6.3 107 1.2 102810 81
2004-03-10 07:55:00 51°14.512 2°54.619 5.6 104 1.2 102800 81
2004-03-10 07:55:04 51°14.516 2°54.603 5.4 104 1.2 102800 81
2004-03-10 07:55:10 51°14.521 2°54.58 5.2 105 1.2 102800 81
2004-03-10 07:55:14 51°14.525 2°54.564 5.9 85 1.2 102800 81
2004-03-10 07:55:20 51°14.531 2°54.541 5.9 89 1.2 102800 81
2004-03-10 07:55:25 51°14.537 2°54.521 7.9 86 1.2 102800 81
2004-03-10 07:55:30 51°14.544 2°54.501 8.5 83 1.2 102800 81
2004-03-10 07:55:35 51°14.551 2°54.48 7.8 85 1.2 102800 81
2004-03-10 07:55:40 51°14.559 2°54.459 6.8 81 1.2 102800 81
2004-03-10 07:55:46 51°14.569 2°54.434 6.4 83 1.2 102800 81
2004-03-10 07:55:50 51°14.576 2°54.417 6.3 84 1.2 102790 81
2004-03-10 07:55:54 51°14.583 2°54.399 7.7 87 1.2 102790 81
2004-03-10 07:56:00 51°14.594 2°54.372 7 85 1.2 102790 81
2004-03-10 07:56:06 51°14.605 2°54.344 8.9 83 1.2 102790 81
2004-03-10 07:56:10 51°14.612 2°54.325 6.2 78 1.2 102790 81
2004-03-10 07:56:15 51°14.622 2°54.301 9.3 82 1.2 102790 81
2004-03-10 07:56:20 51°14.632 2°54.277 8.5 78 1.2 102790 81
2004-03-10 07:56:26 51°14.643 2°54.247 9.3 76 1.2 102790 81
2004-03-10 07:56:30 51°14.652 2°54.228 8.8 74 1.2 102790 81
2004-03-10 07:56:35 51°14.663 2°54.203 11.8 67 1.2 102790 81
2004-03-10 07:56:40 51°14.674 2°54.18 10.5 67 1.3 102780 82
2004-03-10 07:56:44 51°14.683 2°54.16 10.1 69 1.3 102780 82
2004-03-10 07:56:50 51°14.697 2°54.132 11.1 64 1.3 102780 82
2004-03-10 07:56:55 51°14.708 2°54.108 9.6 71 1.3 102780 82
2004-03-10 07:57:00 51°14.72 2°54.085 9.4 67 1.3 102770 82
2004-03-10 07:57:04 51°14.73 2°54.066 11.4 63 1.3 102770 82
2004-03-10 07:57:10 51°14.744 2°54.038 11 63 1.3 102770 81
2004-03-10 07:57:15 51°14.756 2°54.014 10.7 63 1.3 102770 81
2004-03-10 07:57:20 51°14.768 2°53.991 10.1 68 1.3 102770 81
2004-03-10 07:57:26 51°14.781 2°53.962 9.4 70 1.3 102770 81
2004-03-10 07:57:30 51°14.791 2°53.943 9.4 72 1.3 102780 81
2004-03-10 07:57:34 51°14.8 2°53.925 8.6 72 1.3 102780 81
2004-03-10 07:57:40 51°14.815 2°53.898 9.9 61 1.3 102770 81
2004-03-10 07:57:46 51°14.831 2°53.874 12.2 61 1.3 102770 81
2004-03-10 07:57:50 51°14.842 2°53.858 11.7 56 1.3 102770 81
2004-03-10 07:57:55 51°14.857 2°53.839 12.2 57 1.3 102770 81
2004-03-10 07:58:00 51°14.871 2°53.821 12.3 57 1.3 102780 81
2004-03-10 07:58:04 51°14.883 2°53.807 11.5 61 1.3 102780 81
2004-03-10 07:58:10 51°14.901 2°53.786 10.7 60 1.3 102780 81
2004-03-10 07:58:14 51°14.913 2°53.772 10.6 61 1.3 102780 81
2004-03-10 07:58:20 51°14.93 2°53.75 10.7 61 1.3 102770 81
2004-03-10 07:58:25 51°14.945 2°53.732 10.4 58 1.3 102770 81
2004-03-10 07:58:30 51°14.959 2°53.713 11.4 57 1.2 102770 81
2004-03-10 07:58:36 51°14.976 2°53.69 10.4 66 1.2 102770 81
2004-03-10 07:58:40 51°14.987 2°53.674 10.3 65 1.2 102770 81
2004-03-10 07:58:46 51°15.004 2°53.651 9.8 62 1.2 102770 81
2004-03-10 07:58:50 51°15.016 2°53.637 9.7 60 1.3 102780 82
2004-03-10 07:58:55 51°15.031 2°53.619 9.9 54 1.3 102780 82
2004-03-10 07:59:00 51°15.046 2°53.603 11 53 1.2 102770 81
2004-03-10 07:59:06 51°15.066 2°53.585 11 55 1.2 102770 81
2004-03-10 07:59:10 51°15.078 2°53.574 11.8 47 1.2 102770 81
2004-03-10 07:59:14 51°15.091 2°53.563 11.5 44 1.2 102770 81
2004-03-10 07:59:20 51°15.111 2°53.548 12 40 1.2 102770 81
2004-03-10 07:59:24 51°15.124 2°53.538 12.6 46 1.2 102770 81
2004-03-10 07:59:30 51°15.143 2°53.524 11.5 47 1.2 102770 81
2004-03-10 07:59:35 51°15.16 2°53.513 11.4 47 1.2 102770 81
2004-03-10 07:59:40 51°15.176 2°53.502 11.7 44 1.2 102770 81
2004-03-10 07:59:46 51°15.196 2°53.487 11.4 44 1.2 102770 81
2004-03-10 07:59:50 51°15.209 2°53.477 10.3 49 1.2 102770 81
2004-03-10 07:59:54 51°15.222 2°53.467 11.1 44 1.2 102770 81
2004-03-10 08:00:00 51°15.242 2°53.45 11.2 47 1.2 102770 81
2004-03-10 08:00:06 51°15.261 2°53.432 11 46 1.2 102770 81
2004-03-10 08:00:10 51°15.274 2°53.42 10.6 48 1.3 102770 81
2004-03-10 08:00:16 51°15.292 2°53.401 10.2 50 1.3 102770 81
2004-03-10 08:00:20 51°15.305 2°53.388 10.8 46 1.3 102780 81
2004-03-10 08:00:24 51°15.318 2°53.375 10.8 50 1.3 102780 81
2004-03-10 08:00:30 51°15.337 2°53.356 10.8 45 1.3 102770 81
2004-03-10 08:00:36 51°15.356 2°53.339 11.3 45 1.3 102770 81
2004-03-10 08:00:40 51°15.37 2°53.329 11.1 34 1.3 102770 80
2004-03-10 08:00:46 51°15.39 2°53.316 11.9 42 1.3 102770 80
2004-03-10 08:00:50 51°15.404 2°53.307 11 42 1.2 102770 80
2004-03-10 08:00:56 51°15.425 2°53.297 10.8 39 1.2 102770 80
2004-03-10 08:01:00 51°15.439 2°53.289 12 33 1.2 102780 80
2004-03-10 08:01:04 51°15.453 2°53.283 12.5 38 1.2 102780 80
2004-03-10 08:01:10 51°15.474 2°53.271 12 42 1.3 102780 80
2004-03-10 08:01:15 51°15.492 2°53.262 11.3 38 1.3 102780 80
2004-03-10 08:01:20 51°15.509 2°53.252 10.7 37 1.3 102770 80
2004-03-10 08:01:26 51°15.53 2°53.239 11 39 1.3 102770 80
2004-03-10 08:01:30 51°15.544 2°53.231 11.3 40 1.3 102780 80
2004-03-10 08:01:34 51°15.558 2°53.222 11.3 41 1.3 102780 80
2004-03-10 08:01:40 51°15.578 2°53.209 11.1 41 1.3 102770 81
2004-03-10 08:01:44 51°15.592 2°53.201 11.6 37 1.3 102770 81
2004-03-10 08:01:50 51°15.613 2°53.189 11.1 45 1.3 102770 81
2004-03-10 08:01:56 51°15.634 2°53.177 10.7 47 1.3 102770 81
2004-03-10 08:02:00 51°15.648 2°53.169 10 42 1.3 102780 81
2004-03-10 08:02:05 51°15.665 2°53.158 10.1 43 1.3 102780 81
2004-03-10 08:02:10 51°15.683 2°53.148 10.8 38 1.3 102780 81
2004-03-10 08:02:14 51°15.697 2°53.14 11.9 46 1.3 102780 81
2004-03-10 08:02:20 51°15.717 2°53.128 11.8 45 1.4 102770 81
2004-03-10 08:02:26 51°15.738 2°53.115 10.8 51 1.4 102770 81
2004-03-10 08:02:30 51°15.752 2°53.107 10.8 46 1.3 102770 81
2004-03-10 08:02:36 51°15.773 2°53.095 10.8 49 1.3 102770 81
2004-03-10 08:02:40 51°15.787 2°53.087 12.6 46 1.3 102770 81
2004-03-10 08:02:46 51°15.808 2°53.074 11.7 51 1.3 102770 81
2004-03-10 08:02:50 51°15.822 2°53.067 12.2 48 1.4 102770 81
2004-03-10 08:02:56 51°15.843 2°53.055 12.6 51 1.4 102770 81
2004-03-10 08:03:00 51°15.857 2°53.047 12.7 54 1.4 102780 81
2004-03-10 08:03:06 51°15.878 2°53.035 12.1 50 1.4 102780 81
2004-03-10 08:03:10 51°15.892 2°53.026 12.3 52 1.4 102770 81
2004-03-10 08:03:16 51°15.912 2°53.014 13.3 43 1.4 102770 81
2004-03-10 08:03:20 51°15.926 2°53.006 12.5 49 1.4 102760 81
2004-03-10 08:03:24 51°15.94 2°52.998 12.9 49 1.4 102760 81
2004-03-10 08:03:30 51°15.961 2°52.985 12.7 49 1.4 102760 81
2004-03-10 08:03:35 51°15.979 2°52.974 12.2 45 1.4 102760 81
2004-03-10 08:03:40 51°15.996 2°52.964 12.9 46 1.4 102770 80
2004-03-10 08:03:46 51°16.017 2°52.951 13.2 45 1.4 102770 80
2004-03-10 08:03:50 51°16.031 2°52.943 12.6 47 1.4 102770 80
2004-03-10 08:03:54 51°16.044 2°52.935 12.8 48 1.4 102770 80
2004-03-10 08:04:00 51°16.065 2°52.922 13.6 46 1.4 102760 79
2004-03-10 08:04:04 51°16.079 2°52.914 12 49 1.4 102760 79
2004-03-10 08:04:10 51°16.1 2°52.902 12.7 47 1.4 102770 79
2004-03-10 08:04:16 51°16.121 2°52.889 12.3 49 1.4 102770 79
2004-03-10 08:04:20 51°16.135 2°52.881 12.1 49 1.4 102770 78
2004-03-10 08:04:26 51°16.155 2°52.869 11.6 47 1.4 102770 78
2004-03-10 08:04:30 51°16.169 2°52.86 11.9 48 1.4 102770 78
2004-03-10 08:04:36 51°16.19 2°52.848 11.3 48 1.4 102770 78
2004-03-10 08:04:40 51°16.204 2°52.839 11.9 49 1.4 102770 78
2004-03-10 08:04:44 51°16.218 2°52.831 12.9 49 1.4 102770 78
2004-03-10 08:04:50 51°16.239 2°52.818 11.9 49 1.4 102760 78
2004-03-10 08:04:56 51°16.259 2°52.806 11.9 52 1.4 102760 78
2004-03-10 08:05:00 51°16.273 2°52.797 11.5 48 1.4 102760 78
2004-03-10 08:05:06 51°16.294 2°52.785 12 42 1.4 102760 78
2004-03-10 08:05:10 51°16.308 2°52.777 11.8 43 1.4 102770 78
2004-03-10 08:05:16 51°16.329 2°52.766 11.8 42 1.4 102770 78
2004-03-10 08:05:20 51°16.343 2°52.76 12.8 42 1.5 102770 78
2004-03-10 08:05:26 51°16.364 2°52.749 12.6 41 1.5 102770 78
2004-03-10 08:05:30 51°16.378 2°52.743 14.4 42 1.5 102770 79
2004-03-10 08:05:36 51°16.399 2°52.733 14.3 45 1.5 102770 79
2004-03-10 08:05:40 51°16.413 2°52.727 13.3 47 1.5 102770 79
2004-03-10 08:05:46 51°16.434 2°52.716 14.1 48 1.5 102770 79
2004-03-10 08:05:50 51°16.449 2°52.71 14 50 1.5 102770 79
2004-03-10 08:05:54 51°16.463 2°52.703 13.9 50 1.5 102770 79
2004-03-10 08:06:00 51°16.483 2°52.693 13.9 52 1.5 102760 78
2004-03-10 08:06:06 51°16.505 2°52.683 13.3 50 1.5 102760 78
2004-03-10 08:06:10 51°16.519 2°52.677 13 53 1.5 102750 77
2004-03-10 08:06:14 51°16.533 2°52.671 13 53 1.5 102750 77
2004-03-10 08:06:20 51°16.554 2°52.662 12.6 52 1.5 102750 77
2004-03-10 08:06:26 51°16.575 2°52.652 12.7 52 1.5 102750 77
2004-03-10 08:06:30 51°16.589 2°52.646 11.6 51 1.5 102760 77
2004-03-10 08:06:36 51°16.61 2°52.637 12.6 54 1.5 102760 77
2004-03-10 08:06:40 51°16.624 2°52.631 12.1 49 1.5 102760 77
2004-03-10 08:06:46 51°16.645 2°52.621 12.2 52 1.5 102760 77
2004-03-10 08:06:50 51°16.659 2°52.615 11.7 53 1.6 102770 77
2004-03-10 08:06:54 51°16.673 2°52.609 12.7 49 1.6 102770 77
2004-03-10 08:07:00 51°16.694 2°52.6 12.6 50 1.6 102770 77
2004-03-10 08:07:04 51°16.708 2°52.594 12.8 54 1.6 102770 77
2004-03-10 08:07:10 51°16.729 2°52.586 12 48 1.5 102760 77
2004-03-10 08:07:16 51°16.749 2°52.578 11.4 50 1.5 102760 77
2004-03-10 08:07:20 51°16.763 2°52.573 11.8 45 1.5 102770 77
2004-03-10 08:07:24 51°16.777 2°52.568 12 48 1.5 102770 77
2004-03-10 08:07:30 51°16.797 2°52.56 12.2 48 1.5 102770 77
2004-03-10 08:07:34 51°16.811 2°52.554 11.2 43 1.5 102770 77
2004-03-10 08:07:40 51°16.832 2°52.545 14.1 44 1.5 102770 77
2004-03-10 08:07:46 51°16.853 2°52.536 13.4 44 1.5 102770 77
2004-03-10 08:07:50 51°16.866 2°52.529 13.2 45 1.6 102770 77
2004-03-10 08:07:56 51°16.887 2°52.52 13.2 48 1.6 102770 77
2004-03-10 08:08:00 51°16.901 2°52.513 13.7 47 1.6 102770 77
2004-03-10 08:08:06 51°16.922 2°52.504 13.3 43 1.6 102770 77
2004-03-10 08:08:10 51°16.936 2°52.498 13.3 40 1.6 102760 77
2004-03-10 08:08:14 51°16.95 2°52.495 13.3 39 1.6 102760 77
2004-03-10 08:08:20 51°16.971 2°52.49 13 42 1.6 102770 76
2004-03-10 08:08:26 51°16.991 2°52.488 12.1 39 1.6 102770 76
2004-03-10 08:08:30 51°17.005 2°52.487 13 37 1.6 102760 76
2004-03-10 08:08:36 51°17.026 2°52.486 12.7 33 1.6 102760 76
2004-03-10 08:08:40 51°17.04 2°52.486 14.5 35 1.6 102780 76
2004-03-10 08:08:46 51°17.06 2°52.486 14 36 1.6 102780 76
2004-03-10 08:08:50 51°17.074 2°52.485 13.9 37 1.6 102770 76
2004-03-10 08:08:56 51°17.095 2°52.483 13.8 39 1.6 102770 76
2004-03-10 08:09:00 51°17.109 2°52.481 14.7 35 1.6 102770 76
2004-03-10 08:09:04 51°17.123 2°52.479 13.2 36 1.6 102770 76
2004-03-10 08:09:10 51°17.144 2°52.475 14.7 41 1.6 102770 76
2004-03-10 08:09:15 51°17.162 2°52.471 13.8 39 1.6 102770 76
2004-03-10 08:09:20 51°17.179 2°52.468 14 42 1.6 102770 76
2004-03-10 08:09:24 51°17.193 2°52.465 13.1 42 1.6 102770 76
2004-03-10 08:09:30 51°17.215 2°52.461 13.5 41 1.6 102760 77
2004-03-10 08:09:35 51°17.232 2°52.459 12.8 41 1.6 102760 77
2004-03-10 08:09:40 51°17.25 2°52.457 13.3 36 1.6 102770 76
2004-03-10 08:09:44 51°17.264 2°52.455 13.1 37 1.6 102770 76
2004-03-10 08:09:50 51°17.285 2°52.453 14.7 33 1.6 102760 76
2004-03-10 08:09:55 51°17.303 2°52.452 13.3 31 1.6 102760 76
2004-03-10 08:10:00 51°17.321 2°52.45 12.5 35 1.6 102770 76
2004-03-10 08:10:05 51°17.339 2°52.449 13.2 34 1.6 102770 76
2004-03-10 08:10:10 51°17.357 2°52.447 13.5 31 1.6 102770 77
2004-03-10 08:10:16 51°17.378 2°52.443 12.5 35 1.6 102770 77
2004-03-10 08:10:20 51°17.392 2°52.441 14.4 44 1.6 102770 77
2004-03-10 08:10:26 51°17.413 2°52.438 13.4 47 1.6 102770 77
2004-03-10 08:10:30 51°17.427 2°52.436 14.7 40 1.6 102780 77
2004-03-10 08:10:35 51°17.445 2°52.433 15.3 42 1.6 102780 77
2004-03-10 08:10:40 51°17.463 2°52.431 13.7 45 1.7 102770 77
2004-03-10 08:10:44 51°17.477 2°52.429 13.8 44 1.7 102770 77
2004-03-10 08:10:50 51°17.498 2°52.427 15.4 43 1.7 102760 77
2004-03-10 08:10:56 51°17.519 2°52.425 14.8 47 1.7 102760 77
2004-03-10 08:11:00 51°17.533 2°52.424 15.5 45 1.6 102760 76
2004-03-10 08:11:06 51°17.555 2°52.422 15.5 43 1.6 102760 76
2004-03-10 08:11:10 51°17.569 2°52.42 14.7 41 1.6 102760 76
2004-03-10 08:11:16 51°17.59 2°52.418 14.3 40 1.6 102760 76
2004-03-10 08:11:20 51°17.604 2°52.416 14.1 42 1.7 102760 75
2004-03-10 08:11:26 51°17.626 2°52.412 13.8 41 1.7 102760 75
2004-03-10 08:11:30 51°17.64 2°52.41 13.8 44 1.6 102760 75
2004-03-10 08:11:36 51°17.661 2°52.407 13.5 38 1.6 102760 75
2004-03-10 08:11:40 51°17.676 2°52.405 13.4 43 1.7 102760 75
2004-03-10 08:11:46 51°17.697 2°52.402 14.2 46 1.7 102760 75
2004-03-10 08:11:50 51°17.711 2°52.401 13.8 47 1.7 102770 75
2004-03-10 08:11:56 51°17.732 2°52.398 12.9 42 1.7 102770 75
2004-03-10 08:12:00 51°17.747 2°52.397 12.7 44 1.7 102760 75
2004-03-10 08:12:06 51°17.768 2°52.394 13.6 40 1.7 102760 75
2004-03-10 08:12:10 51°17.782 2°52.392 14.7 36 1.7 102770 75
2004-03-10 08:12:16 51°17.803 2°52.389 13.8 35 1.7 102770 75
2004-03-10 08:12:20 51°17.817 2°52.387 13.6 36 1.7 102760 75
2004-03-10 08:12:24 51°17.832 2°52.384 13.3 38 1.7 102760 75
2004-03-10 08:12:30 51°17.853 2°52.381 12.8 35 1.7 102770 75
2004-03-10 08:12:35 51°17.871 2°52.378 13.7 35 1.7 102770 75
2004-03-10 08:12:40 51°17.888 2°52.375 14.5 36 1.7 102770 75
2004-03-10 08:12:46 51°17.91 2°52.372 14.3 34 1.7 102770 75
2004-03-10 08:12:50 51°17.924 2°52.371 13.9 32 1.7 102770 74
2004-03-10 08:12:56 51°17.946 2°52.371 13.6 36 1.7 102770 74
2004-03-10 08:13:00 51°17.96 2°52.371 14.2 29 1.7 102780 74
2004-03-10 08:13:06 51°17.981 2°52.373 13.3 31 1.7 102780 74
2004-03-10 08:13:10 51°17.995 2°52.375 14.6 27 1.7 102770 74
2004-03-10 08:13:14 51°18.009 2°52.377 14.4 29 1.7 102770 74
2004-03-10 08:13:20 51°18.03 2°52.38 13.4 32 1.7 102770 74
2004-03-10 08:13:26 51°18.051 2°52.383 15.2 35 1.7 102770 74
2004-03-10 08:13:30 51°18.065 2°52.385 15.1 38 1.7 102780 75
2004-03-10 08:13:36 51°18.086 2°52.387 13.7 38 1.7 102780 75
2004-03-10 08:13:40 51°18.1 2°52.389 13.8 37 1.7 102770 75
2004-03-10 08:13:46 51°18.122 2°52.391 13.3 35 1.7 102770 75
2004-03-10 08:13:50 51°18.136 2°52.392 13.3 31 1.7 102760 75
2004-03-10 08:13:54 51°18.15 2°52.393 12.5 31 1.7 102760 75
2004-03-10 08:14:00 51°18.171 2°52.395 15.2 30 1.7 102760 75
2004-03-10 08:14:06 51°18.192 2°52.397 13 30 1.7 102760 75
2004-03-10 08:14:10 51°18.206 2°52.398 13.7 28 1.7 102770 75
2004-03-10 08:14:16 51°18.227 2°52.403 13.4 29 1.7 102770 75
2004-03-10 08:14:20 51°18.241 2°52.406 14.6 22 1.7 102780 75
2004-03-10 08:14:26 51°18.261 2°52.413 15.4 25 1.7 102780 75
2004-03-10 08:14:30 51°18.275 2°52.418 14.6 17 1.7 102770 74
2004-03-10 08:14:36 51°18.295 2°52.426 14.4 23 1.7 102770 74
2004-03-10 08:14:40 51°18.309 2°52.431 15.6 27 1.7 102770 74
2004-03-10 08:14:45 51°18.325 2°52.438 16.1 26 1.7 102770 74
2004-03-10 08:14:50 51°18.342 2°52.445 15.6 23 1.7 102770 73
2004-03-10 08:14:55 51°18.359 2°52.451 15.5 24 1.7 102770 73
2004-03-10 08:15:00 51°18.376 2°52.457 15.7 24 1.7 102780 74
2004-03-10 08:15:06 51°18.396 2°52.465 16.1 23 1.7 102780 74
2004-03-10 08:15:10 51°18.41 2°52.47 15.2 21 1.7 102770 73
2004-03-10 08:15:16 51°18.43 2°52.478 15.5 15 1.7 102770 73
2004-03-10 08:15:20 51°18.444 2°52.483 15.9 20 1.7 102760 73
2004-03-10 08:15:26 51°18.464 2°52.491 15.4 21 1.7 102760 73
2004-03-10 08:15:30 51°18.478 2°52.496 14.9 18 1.7 102770 73
2004-03-10 08:15:36 51°18.498 2°52.503 14.4 20 1.7 102770 73
2004-03-10 08:15:40 51°18.512 2°52.508 14.7 21 1.8 102780 73
2004-03-10 08:15:46 51°18.532 2°52.515 14.7 20 1.8 102780 73
2004-03-10 08:15:50 51°18.545 2°52.52 14.5 20 1.8 102770 73
2004-03-10 08:15:55 51°18.562 2°52.528 15.7 14 1.8 102770 73
2004-03-10 08:16:00 51°18.578 2°52.536 15 13 1.8 102780 72
2004-03-10 08:16:04 51°18.591 2°52.544 14.8 22 1.8 102780 72
2004-03-10 08:16:10 51°18.61 2°52.555 13.2 19 1.7 102780 72
2004-03-10 08:16:14 51°18.623 2°52.563 13.8 14 1.7 102780 72
2004-03-10 08:16:20 51°18.642 2°52.574 14.8 14 1.8 102780 72
2004-03-10 08:16:25 51°18.658 2°52.584 16 19 1.8 102780 72
2004-03-10 08:16:30 51°18.674 2°52.593 15.3 16 1.8 102790 72
2004-03-10 08:16:36 51°18.693 2°52.605 16.7 13 1.8 102790 72
2004-03-10 08:16:40 51°18.706 2°52.613 16.1 15 1.8 102780 73
2004-03-10 08:16:46 51°18.725 2°52.624 14.8 14 1.8 102780 73
2004-03-10 08:16:50 51°18.738 2°52.632 15.3 12 1.8 102780 73
2004-03-10 08:16:56 51°18.757 2°52.643 14.6 13 1.8 102780 73
2004-03-10 08:17:00 51°18.77 2°52.651 14.6 15 1.9 102780 73
2004-03-10 08:17:06 51°18.789 2°52.662 14.7 13 1.9 102780 73
2004-03-10 08:17:10 51°18.802 2°52.669 16.9 15 1.8 102770 72
2004-03-10 08:17:15 51°18.818 2°52.679 16.3 11 1.8 102770 72
2004-03-10 08:17:20 51°18.834 2°52.689 16.2 11 1.9 102780 72
2004-03-10 08:17:24 51°18.846 2°52.698 15.7 9 1.9 102780 72
2004-03-10 08:17:30 51°18.864 2°52.711 16.3 11 1.9 102780 73
2004-03-10 08:17:36 51°18.883 2°52.725 15.4 12 1.9 102780 73
2004-03-10 08:17:40 51°18.895 2°52.734 15.4 12 1.9 102780 73
2004-03-10 08:17:44 51°18.907 2°52.743 15.3 11 1.9 102780 73
2004-03-10 08:17:50 51°18.926 2°52.757 15.5 10 1.9 102780 72
2004-03-10 08:17:56 51°18.944 2°52.77 14.8 10 1.9 102780 72
2004-03-10 08:18:00 51°18.956 2°52.779 14.6 12 1.9 102790 72
2004-03-10 08:18:06 51°18.975 2°52.792 14.8 13 1.9 102790 72
2004-03-10 08:18:10 51°18.987 2°52.802 14.1 11 1.9 102790 72
2004-03-10 08:18:16 51°19.005 2°52.815 14.2 14 1.9 102790 72
2004-03-10 08:18:20 51°19.018 2°52.824 14.1 12 1.9 102780 71
2004-03-10 08:18:24 51°19.03 2°52.832 14.2 10 1.9 102780 71
2004-03-10 08:18:30 51°19.049 2°52.846 14.9 7 1.9 102790 71
2004-03-10 08:18:35 51°19.064 2°52.857 14 10 1.9 102790 71
2004-03-10 08:18:40 51°19.079 2°52.869 13.9 15 1.9 102780 71
2004-03-10 08:18:46 51°19.098 2°52.882 14.7 22 1.9 102780 71
2004-03-10 08:18:50 51°19.11 2°52.891 15.1 13 1.9 102790 72
2004-03-10 08:18:55 51°19.126 2°52.902 14 16 1.9 102790 72
2004-03-10 08:19:00 51°19.141 2°52.913 16.1 13 1.9 102790 72
2004-03-10 08:19:05 51°19.157 2°52.924 16.2 14 1.9 102790 72
2004-03-10 08:19:10 51°19.173 2°52.935 16.2 13 1.9 102780 72
2004-03-10 08:19:16 51°19.191 2°52.949 15.9 15 1.9 102780 72
2004-03-10 08:19:20 51°19.203 2°52.958 16.1 13 1.9 102790 73
2004-03-10 08:19:26 51°19.222 2°52.971 15.9 14 1.9 102790 73
2004-03-10 08:19:30 51°19.234 2°52.98 15.2 13 1.9 102790 72
2004-03-10 08:19:36 51°19.253 2°52.993 15.5 13 1.9 102790 72
2004-03-10 08:19:40 51°19.265 2°53.002 15.5 15 1.9 102780 72
2004-03-10 08:19:46 51°19.284 2°53.015 14.6 15 1.9 102780 72
2004-03-10 08:19:50 51°19.296 2°53.024 15.8 17 1.9 102780 71
2004-03-10 08:19:56 51°19.315 2°53.037 15.4 13 1.9 102780 71
2004-03-10 08:20:00 51°19.327 2°53.045 15.2 15 1.8 102790 71
2004-03-10 08:20:05 51°19.343 2°53.056 15 12 1.8 102790 71
2004-03-10 08:20:10 51°19.359 2°53.067 14.4 12 1.8 102790 71
2004-03-10 08:20:15 51°19.374 2°53.079 15 13 1.8 102790 71
2004-03-10 08:20:20 51°19.39 2°53.09 15.8 13 1.8 102780 71
2004-03-10 08:20:26 51°19.408 2°53.103 15.5 15 1.8 102780 71
2004-03-10 08:20:30 51°19.42 2°53.112 15 15 1.9 102780 72
2004-03-10 08:20:36 51°19.439 2°53.125 14.3 13 1.9 102780 72
2004-03-10 08:20:40 51°19.451 2°53.134 15.4 15 1.9 102780 72
2004-03-10 08:20:46 51°19.47 2°53.147 15.4 18 1.9 102780 72
2004-03-10 08:20:50 51°19.482 2°53.156 15.5 17 1.9 102800 72
2004-03-10 08:20:55 51°19.498 2°53.167 14.9 15 1.9 102800 72
2004-03-10 08:21:00 51°19.513 2°53.177 15.4 17 1.9 102790 72
2004-03-10 08:21:06 51°19.531 2°53.19 14.8 17 1.9 102790 72
2004-03-10 08:21:10 51°19.544 2°53.199 15.4 18 1.9 102790 72
2004-03-10 08:21:16 51°19.563 2°53.212 14.4 17 1.9 102790 72
2004-03-10 08:21:20 51°19.575 2°53.221 14.9 18 1.9 102770 72
2004-03-10 08:21:26 51°19.593 2°53.234 16 14 1.9 102770 72
2004-03-10 08:21:30 51°19.605 2°53.242 14.9 14 1.9 102790 71
2004-03-10 08:21:36 51°19.623 2°53.255 14.9 18 1.9 102790 71
2004-03-10 08:21:40 51°19.635 2°53.264 14.6 18 1.9 102790 71
2004-03-10 08:21:46 51°19.654 2°53.277 15.2 12 1.9 102790 71
2004-03-10 08:21:50 51°19.666 2°53.286 13.5 14 1.9 102780 71
2004-03-10 08:21:55 51°19.681 2°53.296 13.2 15 1.9 102780 71
2004-03-10 08:22:00 51°19.696 2°53.307 13 15 1.9 102790 71
2004-03-10 08:22:06 51°19.715 2°53.32 13.9 14 1.9 102790 71
2004-03-10 08:22:10 51°19.727 2°53.329 14.3 16 1.9 102790 72
2004-03-10 08:22:16 51°19.745 2°53.342 14.8 16 1.9 102790 72
2004-03-10 08:22:20 51°19.758 2°53.351 15 19 1.9 102790 72
2004-03-10 08:22:26 51°19.776 2°53.364 14.5 19 1.9 102790 72
2004-03-10 08:22:30 51°19.788 2°53.373 13.5 15 1.9 102790 72
2004-03-10 08:22:36 51°19.806 2°53.386 13.9 16 1.9 102790 72
2004-03-10 08:22:40 51°19.819 2°53.395 14 19 1.9 102790 71
2004-03-10 08:22:46 51°19.837 2°53.408 15.7 19 1.9 102790 71
2004-03-10 08:22:50 51°19.849 2°53.417 15.2 17 1.9 102790 71
2004-03-10 08:22:55 51°19.865 2°53.427 15.1 15 1.9 102790 71
2004-03-10 08:23:00 51°19.88 2°53.439 15.3 15 1.9 102790 72
2004-03-10 08:23:05 51°19.896 2°53.449 15 16 1.9 102790 72
2004-03-10 08:23:10 51°19.91 2°53.461 14.6 15 1.9 102780 72
2004-03-10 08:23:16 51°19.929 2°53.474 14 15 1.9 102780 72
2004-03-10 08:23:20 51°19.941 2°53.483 14.6 14 1.9 102790 71
2004-03-10 08:23:26 51°19.959 2°53.496 13.8 15 1.9 102790 71
2004-03-10 08:23:30 51°19.971 2°53.505 15.6 14 1.9 102780 70
2004-03-10 08:23:35 51°19.987 2°53.516 15.5 14 1.9 102780 70
2004-03-10 08:23:40 51°20.002 2°53.527 16.3 17 1.9 102790 70
2004-03-10 08:23:46 51°20.02 2°53.54 16.1 17 1.9 102790 70
2004-03-10 08:23:50 51°20.033 2°53.549 15.3 18 1.9 102790 70
2004-03-10 08:23:56 51°20.051 2°53.563 15.3 19 1.9 102790 70
2004-03-10 08:24:00 51°20.063 2°53.571 16.4 17 1.9 102790 70
2004-03-10 08:24:06 51°20.082 2°53.585 14.9 17 1.9 102790 70
2004-03-10 08:24:10 51°20.094 2°53.593 14.4 15 1.9 102790 70
2004-03-10 08:24:16 51°20.113 2°53.607 15.2 17 1.9 102790 70
2004-03-10 08:24:20 51°20.125 2°53.616 15.5 18 1.9 102790 70
2004-03-10 08:24:26 51°20.143 2°53.629 14.7 19 1.9 102790 70
2004-03-10 08:24:30 51°20.155 2°53.638 14.7 19 1.9 102780 70
2004-03-10 08:24:36 51°20.174 2°53.651 13.9 20 1.9 102780 70
2004-03-10 08:24:40 51°20.186 2°53.66 14.3 17 1.8 102790 70
2004-03-10 08:24:46 51°20.205 2°53.673 15.6 20 1.8 102790 70
2004-03-10 08:24:50 51°20.217 2°53.681 15.8 19 1.8 102780 70
2004-03-10 08:24:55 51°20.232 2°53.693 15 16 1.8 102780 70
2004-03-10 08:25:00 51°20.247 2°53.704 14 15 1.8 102790 69
2004-03-10 08:25:04 51°20.259 2°53.714 14.8 16 1.8 102790 69
2004-03-10 08:25:10 51°20.277 2°53.728 13.9 14 1.9 102780 69
2004-03-10 08:25:16 51°20.295 2°53.743 14.5 16 1.9 102780 69
2004-03-10 08:25:20 51°20.307 2°53.752 16.3 15 1.9 102790 70
2004-03-10 08:25:26 51°20.325 2°53.767 14.5 13 1.9 102790 70
2004-03-10 08:25:30 51°20.337 2°53.777 16.1 13 1.9 102790 71
2004-03-10 08:25:35 51°20.352 2°53.789 14.7 13 1.9 102790 71
2004-03-10 08:25:40 51°20.367 2°53.801 15 15 1.9 102790 71
2004-03-10 08:25:45 51°20.381 2°53.813 15 15 1.9 102790 71
2004-03-10 08:25:50 51°20.396 2°53.825 16.1 15 2 102780 71
2004-03-10 08:25:56 51°20.415 2°53.839 16.5 15 2 102780 71
2004-03-10 08:26:00 51°20.427 2°53.849 15.5 16 1.9 102790 70
2004-03-10 08:26:06 51°20.445 2°53.863 15.5 15 1.9 102790 70
2004-03-10 08:26:10 51°20.457 2°53.873 15.1 16 1.9 102790 70
2004-03-10 08:26:16 51°20.475 2°53.888 14.8 15 1.9 102790 70
2004-03-10 08:26:20 51°20.487 2°53.898 14.9 14 1.9 102790 70
2004-03-10 08:26:26 51°20.505 2°53.913 15.3 14 1.9 102790 70
2004-03-10 08:26:30 51°20.517 2°53.923 15.4 11 1.9 102790 70
2004-03-10 08:26:35 51°20.532 2°53.935 14.3 14 1.9 102790 70
2004-03-10 08:26:40 51°20.547 2°53.948 15.1 17 1.9 102790 70
2004-03-10 08:26:46 51°20.565 2°53.963 15.3 17 1.9 102790 70
2004-03-10 08:26:50 51°20.577 2°53.972 15.1 16 1.9 102790 70
2004-03-10 08:26:56 51°20.595 2°53.987 14.8 18 1.9 102790 70
2004-03-10 08:27:00 51°20.607 2°53.996 14.1 20 1.9 102790 70
2004-03-10 08:27:06 51°20.625 2°54.011 14.1 16 1.9 102790 70
2004-03-10 08:27:10 51°20.637 2°54.021 15.8 13 1.9 102790 70
2004-03-10 08:27:16 51°20.656 2°54.036 15.7 11 1.9 102790 70
2004-03-10 08:27:20 51°20.668 2°54.046 15.7 14 1.9 102790 70
2004-03-10 08:27:24 51°20.68 2°54.055 15.5 14 1.9 102790 70
2004-03-10 08:27:30 51°20.698 2°54.071 15.6 15 1.9 102790 70
2004-03-10 08:27:36 51°20.716 2°54.086 14.2 19 1.9 102790 70
2004-03-10 08:27:40 51°20.728 2°54.095 15 21 1.9 102790 70
2004-03-10 08:27:46 51°20.746 2°54.11 16.4 18 1.9 102790 70
2004-03-10 08:27:50 51°20.758 2°54.12 16.1 20 1.9 102790 70
2004-03-10 08:27:56 51°20.776 2°54.134 15.3 21 1.9 102790 70
2004-03-10 08:28:00 51°20.788 2°54.144 15.6 20 1.9 102790 70
2004-03-10 08:28:05 51°20.803 2°54.157 15.8 23 1.9 102790 70
2004-03-10 08:28:10 51°20.818 2°54.169 16.2 21 1.9 102780 70
2004-03-10 08:28:16 51°20.836 2°54.184 16.1 22 1.9 102780 70
2004-03-10 08:28:20 51°20.848 2°54.194 14.6 21 1.9 102790 70
2004-03-10 08:28:26 51°20.865 2°54.208 14.6 21 1.9 102790 70
2004-03-10 08:28:30 51°20.877 2°54.218 14.1 21 1.9 102780 69
2004-03-10 08:28:36 51°20.895 2°54.232 13.8 22 1.9 102780 69
2004-03-10 08:28:40 51°20.907 2°54.242 14 20 1.9 102790 70
2004-03-10 08:28:45 51°20.922 2°54.253 14.1 21 1.9 102790 70
2004-03-10 08:28:50 51°20.937 2°54.266 13.9 18 1.9 102790 69
2004-03-10 08:28:56 51°20.955 2°54.28 13.5 24 1.9 102790 69
2004-03-10 08:29:00 51°20.966 2°54.29 14.8 16 1.9 102790 69
2004-03-10 08:29:06 51°20.984 2°54.305 14.9 14 1.9 102790 69
2004-03-10 08:29:10 51°20.996 2°54.315 13.8 15 1.8 102790 69
2004-03-10 08:29:14 51°21.008 2°54.325 14.1 15 1.8 102790 69
2004-03-10 08:29:20 51°21.026 2°54.339 15.3 18 1.8 102790 69
2004-03-10 08:29:26 51°21.044 2°54.353 16.1 18 1.8 102790 69
2004-03-10 08:29:30 51°21.056 2°54.363 15.9 17 1.8 102790 69
2004-03-10 08:29:36 51°21.075 2°54.377 16.3 14 1.8 102790 69
2004-03-10 08:29:40 51°21.087 2°54.387 14.3 10 1.8 102780 69
2004-03-10 08:29:46 51°21.105 2°54.401 13.3 15 1.8 102780 69
2004-03-10 08:29:50 51°21.117 2°54.411 15.1 15 1.8 102790 69
2004-03-10 08:29:55 51°21.132 2°54.423 14.6 14 1.8 102790 69
2004-03-10 08:30:00 51°21.147 2°54.435 15 11 1.8 102780 69
2004-03-10 08:30:06 51°21.165 2°54.45 14.7 15 1.8 102780 69
2004-03-10 08:30:10 51°21.177 2°54.459 15.8 12 1.9 102790 70
2004-03-10 08:30:15 51°21.192 2°54.472 15.7 11 1.9 102790 70
2004-03-10 08:30:20 51°21.207 2°54.484 15.8 12 1.8 102810 70
2004-03-10 08:30:26 51°21.225 2°54.498 15.5 14 1.8 102810 70
2004-03-10 08:30:30 51°21.237 2°54.508 16.2 11 1.8 102800 70
2004-03-10 08:30:36 51°21.254 2°54.523 16.2 12 1.8 102800 70
2004-03-10 08:30:40 51°21.266 2°54.533 15.1 15 1.8 102780 69
2004-03-10 08:30:45 51°21.281 2°54.545 14.7 16 1.8 102780 69
2004-03-10 08:30:50 51°21.296 2°54.557 14.8 18 1.8 102790 69
2004-03-10 08:30:55 51°21.311 2°54.569 14.4 13 1.8 102790 69
2004-03-10 08:31:00 51°21.327 2°54.581 14.4 15 1.8 102810 70
2004-03-10 08:31:06 51°21.345 2°54.596 14 16 1.8 102810 70
2004-03-10 08:31:10 51°21.357 2°54.606 14.4 17 1.8 102800 70
2004-03-10 08:31:14 51°21.369 2°54.615 14.7 12 1.8 102800 70
2004-03-10 08:31:20 51°21.387 2°54.63 14 14 1.9 102800 70
2004-03-10 08:31:24 51°21.399 2°54.641 14.6 13 1.9 102800 70
2004-03-10 08:31:30 51°21.418 2°54.656 14.6 14 1.8 102790 70
2004-03-10 08:31:36 51°21.435 2°54.67 16 15 1.8 102790 70
2004-03-10 08:31:40 51°21.447 2°54.68 14.9 15 1.8 102790 70
2004-03-10 08:31:46 51°21.465 2°54.695 15.6 11 1.8 102790 70
2004-03-10 08:31:50 51°21.477 2°54.705 16.6 11 1.8 102790 70
2004-03-10 08:31:55 51°21.492 2°54.718 15.7 13 1.8 102790 70
2004-03-10 08:32:00 51°21.507 2°54.73 16.4 11 1.8 102800 70
2004-03-10 08:32:06 51°21.525 2°54.744 16.8 16 1.8 102800 70
2004-03-10 08:32:10 51°21.537 2°54.754 17.4 16 1.9 102790 71
2004-03-10 08:32:14 51°21.549 2°54.764 16.2 17 1.9 102790 71
2004-03-10 08:32:20 51°21.567 2°54.779 15.9 18 1.9 102790 71
2004-03-10 08:32:26 51°21.585 2°54.794 16.1 16 1.9 102790 71
2004-03-10 08:32:30 51°21.597 2°54.803 15.6 19 1.9 102800 71
2004-03-10 08:32:36 51°21.615 2°54.818 15.5 15 1.9 102800 71
2004-03-10 08:32:40 51°21.627 2°54.828 14.7 18 1.9 102780 70
2004-03-10 08:32:46 51°21.645 2°54.842 14.8 15 1.9 102780 70
2004-03-10 08:32:50 51°21.657 2°54.852 14.5 15 1.8 102800 70
2004-03-10 08:32:55 51°21.672 2°54.865 14 18 1.8 102800 70
2004-03-10 08:33:00 51°21.687 2°54.877 15.5 17 1.9 102780 70
2004-03-10 08:33:06 51°21.705 2°54.891 14.3 11 1.9 102780 70
2004-03-10 08:33:10 51°21.717 2°54.902 15.5 15 1.9 102800 70
2004-03-10 08:33:16 51°21.735 2°54.916 15.8 12 1.9 102800 70
2004-03-10 08:33:20 51°21.747 2°54.926 14.4 14 1.9 102780 71
2004-03-10 08:33:26 51°21.765 2°54.941 15.5 14 1.9 102780 71
2004-03-10 08:33:30 51°21.777 2°54.951 15.8 14 1.9 102780 71
2004-03-10 08:33:36 51°21.795 2°54.966 15.3 9 1.9 102780 71
2004-03-10 08:33:40 51°21.807 2°54.976 16.3 13 1.9 102790 71
2004-03-10 08:33:46 51°21.825 2°54.991 15.8 12 1.9 102790 71
2004-03-10 08:33:50 51°21.837 2°55.001 15.4 12 1.9 102790 70
2004-03-10 08:33:56 51°21.855 2°55.016 15.3 12 1.9 102790 70
2004-03-10 08:34:00 51°21.867 2°55.026 15.6 15 1.9 102800 71
2004-03-10 08:34:05 51°21.882 2°55.038 15.1 23 1.9 102800 71
2004-03-10 08:34:10 51°21.898 2°55.049 13.4 21 1.9 102780 71
2004-03-10 08:34:16 51°21.916 2°55.062 14 18 1.9 102780 71
2004-03-10 08:34:20 51°21.928 2°55.071 14.5 18 1.9 102790 71
2004-03-10 08:34:26 51°21.947 2°55.084 14 19 1.9 102790 71
2004-03-10 08:34:30 51°21.959 2°55.093 14.7 20 1.9 102790 71
2004-03-10 08:34:34 51°21.971 2°55.102 14.7 17 1.9 102790 71
2004-03-10 08:34:40 51°21.99 2°55.115 15.5 19 1.9 102790 72
2004-03-10 08:34:46 51°22.009 2°55.128 14.9 18 1.9 102790 72
2004-03-10 08:34:50 51°22.021 2°55.137 15.8 16 1.9 102790 72
2004-03-10 08:34:56 51°22.041 2°55.151 15.6 18 1.9 102790 72
2004-03-10 08:35:00 51°22.053 2°55.16 16.3 20 1.9 102800 73
2004-03-10 08:35:06 51°22.072 2°55.173 15.1 20 1.9 102800 73
2004-03-10 08:35:10 51°22.084 2°55.182 14.9 17 1.9 102790 73
2004-03-10 08:35:16 51°22.103 2°55.196 15.2 19 1.9 102790 73
2004-03-10 08:35:20 51°22.115 2°55.205 14.9 21 1.9 102790 72
2004-03-10 08:35:26 51°22.134 2°55.218 15.1 20 1.9 102790 72
2004-03-10 08:35:30 51°22.146 2°55.227 16.3 19 1.9 102780 72
2004-03-10 08:35:36 51°22.165 2°55.24 16.7 18 1.9 102780 72
2004-03-10 08:35:40 51°22.178 2°55.249 15.5 17 2 102790 73
2004-03-10 08:35:45 51°22.193 2°55.261 16.2 17 2 102790 73
2004-03-10 08:35:50 51°22.209 2°55.272 16.4 15 2 102780 73
2004-03-10 08:35:55 51°22.225 2°55.283 16 14 2 102780 73
2004-03-10 08:36:00 51°22.24 2°55.294 16.8 14 1.9 102780 73
2004-03-10 08:36:04 51°22.253 2°55.304 16 17 1.9 102780 73
2004-03-10 08:36:10 51°22.272 2°55.317 15.8 16 2 102790 73
2004-03-10 08:36:16 51°22.29 2°55.331 17 14 2 102790 73
2004-03-10 08:36:20 51°22.303 2°55.34 16 14 1.9 102790 73
2004-03-10 08:36:26 51°22.322 2°55.354 16.6 15 1.9 102790 73
2004-03-10 08:36:30 51°22.334 2°55.363 16.4 16 1.9 102780 73
2004-03-10 08:36:36 51°22.353 2°55.376 16 18 1.9 102780 73
2004-03-10 08:36:40 51°22.366 2°55.385 15.5 11 1.9 102780 72
2004-03-10 08:36:46 51°22.384 2°55.399 15.5 15 1.9 102780 72
2004-03-10 08:36:50 51°22.396 2°55.409 15.1 13 1.9 102790 72
2004-03-10 08:36:56 51°22.415 2°55.422 15.1 13 1.9 102790 72
2004-03-10 08:37:00 51°22.427 2°55.431 15.2 16 1.9 102790 72
2004-03-10 08:37:06 51°22.446 2°55.444 15.7 14 1.9 102790 72
2004-03-10 08:37:10 51°22.458 2°55.453 15.3 15 1.9 102800 72
2004-03-10 08:37:16 51°22.477 2°55.467 16 16 1.9 102800 72
2004-03-10 08:37:20 51°22.49 2°55.476 13.3 19 1.9 102800 72
2004-03-10 08:37:26 51°22.508 2°55.489 15 15 1.9 102800 72
2004-03-10 08:37:30 51°22.521 2°55.498 14.7 14 1.9 102790 72
2004-03-10 08:37:36 51°22.539 2°55.512 14.1 17 1.9 102790 72
2004-03-10 08:37:40 51°22.552 2°55.521 14 20 1.9 102790 72
2004-03-10 08:37:46 51°22.57 2°55.535 13.8 14 1.9 102790 72
2004-03-10 08:37:50 51°22.582 2°55.544 15.4 22 1.9 102790 72
2004-03-10 08:37:56 51°22.601 2°55.557 15.6 20 1.9 102790 72
2004-03-10 08:38:00 51°22.613 2°55.566 14.9 19 1.9 102790 72
2004-03-10 08:38:06 51°22.632 2°55.58 15.2 22 1.9 102790 72
2004-03-10 08:38:10 51°22.644 2°55.589 15.8 24 1.9 102800 72
2004-03-10 08:38:16 51°22.663 2°55.602 14.6 25 1.9 102800 72
2004-03-10 08:38:20 51°22.675 2°55.611 14.3 28 1.9 102780 73
2004-03-10 08:38:26 51°22.694 2°55.625 14.8 27 1.9 102780 73
2004-03-10 08:38:30 51°22.707 2°55.634 16.6 25 1.9 102780 73
2004-03-10 08:38:35 51°22.723 2°55.645 14.9 23 1.9 102780 73
2004-03-10 08:38:40 51°22.738 2°55.656 14.3 24 1.9 102780 72
2004-03-10 08:38:46 51°22.757 2°55.67 14.9 20 1.9 102780 72
2004-03-10 08:38:50 51°22.77 2°55.679 15.2 19 1.9 102780 72
2004-03-10 08:38:56 51°22.789 2°55.693 14.3 26 1.9 102780 72
2004-03-10 08:39:00 51°22.801 2°55.702 14.4 24 1.9 102780 72
2004-03-10 08:39:05 51°22.817 2°55.713 14.4 25 1.9 102780 72
2004-03-10 08:39:10 51°22.832 2°55.724 14.7 22 1.9 102790 73
2004-03-10 08:39:16 51°22.851 2°55.738 14.6 22 1.9 102790 73
2004-03-10 08:39:20 51°22.863 2°55.747 15 22 1.9 102790 73
2004-03-10 08:39:26 51°22.882 2°55.761 15.1 20 1.9 102790 73
2004-03-10 08:39:30 51°22.895 2°55.77 14.5 19 1.9 102790 73
2004-03-10 08:39:36 51°22.913 2°55.783 15.2 21 1.9 102790 73
2004-03-10 08:39:40 51°22.926 2°55.792 15.7 22 1.9 102780 73
2004-03-10 08:39:44 51°22.938 2°55.801 16.2 26 1.9 102780 73
2004-03-10 08:39:50 51°22.957 2°55.815 15.4 26 1.9 102790 74
2004-03-10 08:39:55 51°22.972 2°55.826 15 28 1.9 102790 74
2004-03-10 08:40:00 51°22.988 2°55.837 15.4 27 1.9 102790 73
2004-03-10 08:40:06 51°23.007 2°55.851 14.5 27 1.9 102790 73
2004-03-10 08:40:10 51°23.019 2°55.86 15.2 25 1.9 102780 73
2004-03-10 08:40:16 51°23.038 2°55.874 14.3 30 1.9 102780 73
2004-03-10 08:40:20 51°23.05 2°55.883 14.3 26 1.9 102780 73
2004-03-10 08:40:26 51°23.069 2°55.897 13.5 26 1.9 102780 73
2004-03-10 08:40:30 51°23.081 2°55.906 15 21 1.9 102790 73
2004-03-10 08:40:34 51°23.094 2°55.915 15.1 23 1.9 102790 73
2004-03-10 08:40:40 51°23.112 2°55.929 13 21 1.9 102780 73
2004-03-10 08:40:46 51°23.131 2°55.942 14.8 26 1.9 102780 73
2004-03-10 08:40:50 51°23.143 2°55.952 14.2 18 1.9 102780 74
2004-03-10 08:40:54 51°23.155 2°55.96 14.5 23 1.9 102780 74
2004-03-10 08:41:00 51°23.174 2°55.973 13.6 21 1.9 102790 74
2004-03-10 08:41:04 51°23.187 2°55.982 13.7 20 1.9 102790 74
2004-03-10 08:41:10 51°23.205 2°55.995 13.3 18 1.9 102780 74
2004-03-10 08:41:16 51°23.223 2°56.009 14.4 23 1.9 102780 74
2004-03-10 08:41:20 51°23.235 2°56.018 14.5 22 1.9 102790 74
2004-03-10 08:41:26 51°23.254 2°56.032 14 22 1.9 102790 74
2004-03-10 08:41:30 51°23.266 2°56.041 13.9 22 1.9 102790 74
2004-03-10 08:41:36 51°23.285 2°56.054 14.3 23 1.9 102790 74
2004-03-10 08:41:40 51°23.297 2°56.063 15.4 18 1.9 102790 74
2004-03-10 08:41:46 51°23.316 2°56.077 14.5 14 1.9 102790 74
2004-03-10 08:41:50 51°23.328 2°56.086 14.5 20 2 102800 74
2004-03-10 08:41:56 51°23.347 2°56.1 15.8 23 2 102800 74
2004-03-10 08:42:00 51°23.359 2°56.108 15.4 25 2 102780 74
2004-03-10 08:42:06 51°23.378 2°56.122 14.7 23 2 102780 74
2004-03-10 08:42:10 51°23.39 2°56.131 15.1 21 2 102790 74
2004-03-10 08:42:16 51°23.409 2°56.144 14.5 21 2 102790 74
2004-03-10 08:42:20 51°23.421 2°56.153 15.2 22 2 102780 73
2004-03-10 08:42:26 51°23.439 2°56.166 14.6 21 2 102780 73
2004-03-10 08:42:30 51°23.452 2°56.175 15.2 22 2 102780 73
2004-03-10 08:42:36 51°23.47 2°56.188 15.8 23 2 102780 73
2004-03-10 08:42:40 51°23.482 2°56.197 16.5 16 2 102790 73
2004-03-10 08:42:46 51°23.5 2°56.211 15.7 19 2 102790 73
2004-03-10 08:42:50 51°23.512 2°56.219 16.1 17 2 102770 73
2004-03-10 08:42:56 51°23.531 2°56.232 17 14 2 102770 73
2004-03-10 08:43:00 51°23.543 2°56.241 17.6 17 2 102790 73
2004-03-10 08:43:06 51°23.561 2°56.254 16.9 16 2 102790 73
2004-03-10 08:43:10 51°23.573 2°56.263 16.2 19 2 102790 73
2004-03-10 08:43:16 51°23.591 2°56.277 15.8 16 2 102790 73
2004-03-10 08:43:20 51°23.604 2°56.286 17.3 17 2 102790 73
2004-03-10 08:43:25 51°23.619 2°56.297 16.2 18 2 102790 73
2004-03-10 08:43:30 51°23.634 2°56.308 15.6 18 2 102780 73
2004-03-10 08:43:36 51°23.652 2°56.321 15.5 23 2 102780 73
2004-03-10 08:43:40 51°23.664 2°56.33 15.6 24 2 102780 73
2004-03-10 08:43:46 51°23.683 2°56.344 15.6 19 2 102780 73
2004-03-10 08:43:50 51°23.695 2°56.353 15.1 21 2 102790 73
2004-03-10 08:43:55 51°23.71 2°56.364 16.4 21 2 102790 73
2004-03-10 08:44:00 51°23.724 2°56.375 15.6 23 2 102790 73
2004-03-10 08:44:06 51°23.742 2°56.389 15.1 17 2 102790 73
2004-03-10 08:44:10 51°23.754 2°56.398 15.1 20 2 102790 73
2004-03-10 08:44:16 51°23.772 2°56.411 16.4 15 2 102790 73
2004-03-10 08:44:20 51°23.784 2°56.42 16.4 16 2 102790 73
2004-03-10 08:44:26 51°23.802 2°56.434 16.5 18 2 102790 73
2004-03-10 08:44:30 51°23.814 2°56.442 16.7 19 2 102790 73
2004-03-10 08:44:35 51°23.829 2°56.454 16.8 19 2 102790 73
2004-03-10 08:44:40 51°23.845 2°56.465 16.1 20 2 102790 73
2004-03-10 08:44:46 51°23.863 2°56.479 16.6 19 2 102790 73
2004-03-10 08:44:50 51°23.875 2°56.488 17.2 15 2 102790 73
2004-03-10 08:44:56 51°23.893 2°56.502 16.6 19 2 102790 73
2004-03-10 08:45:00 51°23.905 2°56.511 15.8 17 2 102780 72
2004-03-10 08:45:06 51°23.922 2°56.524 16.6 16 2 102780 72
2004-03-10 08:45:10 51°23.934 2°56.533 15.5 21 2 102780 72
2004-03-10 08:45:15 51°23.949 2°56.544 16.5 15 2 102780 72
2004-03-10 08:45:20 51°23.964 2°56.556 17.8 13 2 102790 72
2004-03-10 08:45:25 51°23.979 2°56.567 15.6 24 2 102790 72
2004-03-10 08:45:30 51°23.994 2°56.579 16.5 21 1.9 102780 72
2004-03-10 08:45:36 51°24.012 2°56.591 16.1 20 1.9 102780 72
2004-03-10 08:45:40 51°24.024 2°56.601 15.8 24 1.9 102790 72
2004-03-10 08:45:46 51°24.042 2°56.614 17.1 19 1.9 102790 72
2004-03-10 08:45:50 51°24.054 2°56.623 15.5 17 2 102780 72
2004-03-10 08:45:56 51°24.072 2°56.637 16.7 23 2 102780 72
2004-03-10 08:46:00 51°24.084 2°56.646 15.8 20 2 102780 72
2004-03-10 08:46:05 51°24.099 2°56.657 16.1 22 2 102780 72
2004-03-10 08:46:09 51°24.111 2°56.666 16.4 18 2 102800 72
2004-03-10 08:46:15 51°24.129 2°56.679 14.5 22 2 102800 72
2004-03-10 08:46:20 51°24.144 2°56.69 14.7 20 2 102800 72
2004-03-10 08:46:25 51°24.159 2°56.701 15.2 21 2 102800 72
2004-03-10 08:46:29 51°24.171 2°56.71 16.2 17 2 102780 72
2004-03-10 08:46:35 51°24.189 2°56.724 16.9 18 2 102780 72
2004-03-10 08:46:39 51°24.201 2°56.733 16.2 17 2 102790 72
2004-03-10 08:46:45 51°24.22 2°56.745 15.9 15 2 102790 72
2004-03-10 08:46:50 51°24.235 2°56.757 17.4 16 2 102780 73
2004-03-10 08:46:55 51°24.25 2°56.768 16.9 17 2 102780 73
2004-03-10 08:46:59 51°24.262 2°56.777 17.8 15 2 102790 73
2004-03-10 08:47:04 51°24.278 2°56.789 18 16 2 102790 73
2004-03-10 08:47:09 51°24.293 2°56.8 17.3 21 2.1 102790 73
2004-03-10 08:47:16 51°24.314 2°56.816 15.9 22 2.1 102790 73
2004-03-10 08:47:19 51°24.323 2°56.822 15.7 24 2.1 102790 73
2004-03-10 08:47:23 51°24.335 2°56.831 16.3 23 2.1 102790 73
2004-03-10 08:47:29 51°24.353 2°56.844 17 24 2 102780 73
2004-03-10 08:47:33 51°24.365 2°56.853 16 21 2 102780 73
2004-03-10 08:47:39 51°24.383 2°56.866 17.9 24 2 102780 73
2004-03-10 08:47:45 51°24.401 2°56.879 18 23 2 102780 73
2004-03-10 08:47:49 51°24.413 2°56.887 17 22 2 102770 73
2004-03-10 08:47:56 51°24.435 2°56.9 17 22 2 102770 73
2004-03-10 08:47:59 51°24.444 2°56.906 16.4 26 2 102780 73
2004-03-10 08:48:05 51°24.463 2°56.919 16.3 24 2 102780 73
2004-03-10 08:48:10 51°24.478 2°56.929 16.6 21 2.1 102780 73
2004-03-10 08:48:13 51°24.487 2°56.935 16 20 2.1 102780 73
2004-03-10 08:48:20 51°24.508 2°56.95 17 20 2 102770 73
2004-03-10 08:48:23 51°24.517 2°56.956 16.5 19 2 102770 73
2004-03-10 08:48:29 51°24.535 2°56.967 16 20 2.1 102780 74
2004-03-10 08:48:35 51°24.554 2°56.979 15.5 19 2.1 102780 74
2004-03-10 08:48:39 51°24.566 2°56.987 17.1 19 2.1 102780 74
2004-03-10 08:48:45 51°24.585 2°56.999 15.5 25 2.1 102780 74
2004-03-10 08:48:50 51°24.6 2°57.01 15.5 23 2 102780 74
2004-03-10 08:48:55 51°24.616 2°57.02 16.8 23 2 102780 74
2004-03-10 08:49:00 51°24.631 2°57.029 15.9 22 2 102790 73
2004-03-10 08:49:06 51°24.65 2°57.041 15.4 23 2 102790 73
2004-03-10 08:49:09 51°24.659 2°57.047 15.9 24 2 102780 73
2004-03-10 08:49:13 51°24.672 2°57.055 16.3 22 2 102780 73
2004-03-10 08:49:19 51°24.691 2°57.066 15.7 17 2 102770 73
2004-03-10 08:49:26 51°24.712 2°57.08 17.4 17 2 102770 73
2004-03-10 08:49:30 51°24.725 2°57.089 17.8 18 2 102790 73
2004-03-10 08:49:36 51°24.743 2°57.102 16.8 19 2 102790 73
2004-03-10 08:49:40 51°24.755 2°57.11 17.5 18 2 102780 73
2004-03-10 08:49:46 51°24.773 2°57.122 18.2 18 2 102780 73
2004-03-10 08:49:50 51°24.786 2°57.13 16.7 21 2 102780 73
2004-03-10 08:49:56 51°24.804 2°57.142 16.5 24 2 102780 73
2004-03-10 08:50:00 51°24.816 2°57.15 17.5 22 1.9 102780 73
2004-03-10 08:50:06 51°24.835 2°57.163 15.5 27 1.9 102780 73
2004-03-10 08:50:10 51°24.847 2°57.171 17.2 21 1.9 102780 73
2004-03-10 08:50:14 51°24.86 2°57.179 18.3 22 1.9 102780 73
2004-03-10 08:50:20 51°24.878 2°57.191 16.9 20 2 102780 73
2004-03-10 08:50:26 51°24.896 2°57.203 17.7 22 2 102780 73
2004-03-10 08:50:30 51°24.908 2°57.212 17.5 25 1.9 102790 73
2004-03-10 08:50:35 51°24.923 2°57.221 17.2 22 1.9 102790 73
2004-03-10 08:50:40 51°24.939 2°57.232 17.2 25 1.9 102780 73
2004-03-10 08:50:45 51°24.954 2°57.241 17 25 1.9 102780 73
2004-03-10 08:50:50 51°24.97 2°57.252 16.8 21 1.9 102780 73
2004-03-10 08:50:55 51°24.985 2°57.262 15.5 20 1.9 102780 73
2004-03-10 08:50:59 51°24.997 2°57.27 15.7 23 1.9 102780 73
2004-03-10 08:51:05 51°25.015 2°57.282 18.2 22 1.9 102780 73
2004-03-10 08:51:10 51°25.029 2°57.292 16.9 21 2 102780 73
2004-03-10 08:51:15 51°25.045 2°57.302 15.2 24 2 102780 73
2004-03-10 08:51:20 51°25.06 2°57.312 15.7 25 2 102780 73
2004-03-10 08:51:25 51°25.075 2°57.323 16.2 22 2 102780 73
2004-03-10 08:51:30 51°25.09 2°57.332 16.9 26 2 102800 73
2004-03-10 08:51:35 51°25.106 2°57.343 15.8 22 2 102800 73
2004-03-10 08:51:39 51°25.118 2°57.351 16.2 20 2 102790 73
2004-03-10 08:51:46 51°25.139 2°57.366 16.6 25 2 102790 73
2004-03-10 08:51:49 51°25.148 2°57.373 17.6 26 1.9 102780 73
2004-03-10 08:51:56 51°25.17 2°57.388 16.4 26 1.9 102780 73
2004-03-10 08:52:00 51°25.182 2°57.396 15.6 27 2 102780 73
2004-03-10 08:52:06 51°25.199 2°57.409 15.7 23 2 102780 73
2004-03-10 08:52:09 51°25.208 2°57.415 15.3 27 2 102780 73
2004-03-10 08:52:16 51°25.229 2°57.429 16.7 31 2 102780 73
2004-03-10 08:52:19 51°25.238 2°57.435 16.3 30 1.9 102770 73
2004-03-10 08:52:25 51°25.257 2°57.448 16.7 28 1.9 102770 73
2004-03-10 08:52:30 51°25.272 2°57.458 16 32 1.9 102780 72
2004-03-10 08:52:35 51°25.287 2°57.468 15.3 29 1.9 102780 72
2004-03-10 08:52:40 51°25.302 2°57.479 16.5 29 1.9 102790 72
2004-03-10 08:52:43 51°25.311 2°57.485 16.7 31 1.9 102790 72
2004-03-10 08:52:50 51°25.332 2°57.5 15.7 26 1.9 102770 73
2004-03-10 08:52:56 51°25.351 2°57.513 17.4 26 1.9 102770 73
2004-03-10 08:53:00 51°25.363 2°57.521 15.6 21 1.9 102770 72
2004-03-10 08:53:06 51°25.381 2°57.534 15.9 23 1.9 102770 72
2004-03-10 08:53:10 51°25.393 2°57.542 16.2 22 1.9 102790 72
2004-03-10 08:53:16 51°25.411 2°57.554 15.8 18 1.9 102790 72
2004-03-10 08:53:20 51°25.424 2°57.563 17.3 19 1.9 102780 73
2004-03-10 08:53:26 51°25.442 2°57.576 16.1 20 1.9 102780 73
2004-03-10 08:53:30 51°25.455 2°57.585 17 19 1.9 102770 73
2004-03-10 08:53:36 51°25.473 2°57.597 16.9 22 1.9 102770 73
2004-03-10 08:53:40 51°25.485 2°57.606 15.6 16 2 102790 73
2004-03-10 08:53:46 51°25.504 2°57.619 16.2 20 2 102790 73
2004-03-10 08:53:50 51°25.516 2°57.628 16.2 19 1.9 102790 73
2004-03-10 08:53:56 51°25.535 2°57.64 15.5 20 1.9 102790 73
2004-03-10 08:54:00 51°25.547 2°57.648 16.4 22 1.9 102780 73
2004-03-10 08:54:06 51°25.565 2°57.661 16.3 22 1.9 102780 73
2004-03-10 08:54:10 51°25.577 2°57.67 17.4 22 1.9 102790 74
2004-03-10 08:54:16 51°25.595 2°57.682 17.3 20 1.9 102790 74
2004-03-10 08:54:20 51°25.607 2°57.69 17.3 21 1.9 102800 73
2004-03-10 08:54:26 51°25.625 2°57.703 16.2 18 1.9 102800 73
2004-03-10 08:54:30 51°25.637 2°57.711 16.1 15 1.9 102790 73
2004-03-10 08:54:36 51°25.656 2°57.724 14.4 20 1.9 102790 73
2004-03-10 08:54:40 51°25.668 2°57.732 16.2 22 1.9 102780 73
2004-03-10 08:54:46 51°25.686 2°57.745 18.6 21 1.9 102780 73
2004-03-10 08:54:50 51°25.699 2°57.754 17.5 22 1.9 102780 73
2004-03-10 08:54:56 51°25.717 2°57.767 17.6 20 1.9 102780 73
2004-03-10 08:55:00 51°25.729 2°57.775 17.6 13 1.9 102790 74
2004-03-10 08:55:06 51°25.748 2°57.788 18.4 17 1.9 102790 74
2004-03-10 08:55:10 51°25.76 2°57.797 18 18 1.9 102790 74
2004-03-10 08:55:15 51°25.775 2°57.807 17.5 17 1.9 102790 74
2004-03-10 08:55:20 51°25.791 2°57.818 17.9 18 1.9 102770 74
2004-03-10 08:55:26 51°25.809 2°57.832 16.8 21 1.9 102770 74
2004-03-10 08:55:30 51°25.822 2°57.84 16 22 1.9 102790 74
2004-03-10 08:55:36 51°25.84 2°57.853 16.9 19 1.9 102790 74
2004-03-10 08:55:40 51°25.852 2°57.861 16.9 18 1.9 102790 73
2004-03-10 08:55:46 51°25.87 2°57.874 16 17 1.9 102790 73
2004-03-10 08:55:50 51°25.882 2°57.882 15.2 21 1.9 102790 73
2004-03-10 08:55:56 51°25.9 2°57.895 14.8 21 1.9 102790 73
2004-03-10 08:56:00 51°25.912 2°57.903 17.2 22 1.9 102790 73
2004-03-10 08:56:06 51°25.93 2°57.916 17 23 1.9 102790 73
2004-03-10 08:56:10 51°25.943 2°57.924 17.2 23 1.9 102800 72
2004-03-10 08:56:16 51°25.961 2°57.938 17 20 1.9 102800 72
2004-03-10 08:56:20 51°25.973 2°57.946 17.3 23 1.9 102790 72
2004-03-10 08:56:25 51°25.988 2°57.957 16.8 20 1.9 102790 72
2004-03-10 08:56:30 51°26.003 2°57.968 17.4 23 1.9 102790 72
2004-03-10 08:56:36 51°26.021 2°57.981 17.1 26 1.9 102790 72
2004-03-10 08:56:40 51°26.033 2°57.99 17.1 24 1.8 102780 72
2004-03-10 08:56:46 51°26.052 2°58.002 15 27 1.8 102780 72
2004-03-10 08:56:50 51°26.064 2°58.011 15.6 27 1.8 102750 72
2004-03-10 08:56:55 51°26.079 2°58.022 16.8 27 1.8 102750 72
2004-03-10 08:57:00 51°26.094 2°58.033 16.9 25 1.8 102770 72
2004-03-10 08:57:06 51°26.112 2°58.046 13.4 30 1.8 102770 72
2004-03-10 08:57:10 51°26.123 2°58.055 15.1 25 1.8 102790 72
2004-03-10 08:57:16 51°26.141 2°58.068 15.1 27 1.8 102790 72
2004-03-10 08:57:20 51°26.153 2°58.076 16.5 24 1.8 102790 72
2004-03-10 08:57:25 51°26.168 2°58.087 16.6 30 1.8 102790 72
2004-03-10 08:57:30 51°26.182 2°58.098 16 21 1.9 102790 73
2004-03-10 08:57:36 51°26.201 2°58.111 16.2 20 1.9 102790 73
2004-03-10 08:57:40 51°26.212 2°58.12 15 24 1.9 102790 72
2004-03-10 08:57:46 51°26.23 2°58.133 16 22 1.9 102790 72
2004-03-10 08:57:50 51°26.242 2°58.142 16.2 23 1.9 102790 73
2004-03-10 08:57:55 51°26.256 2°58.153 17.2 22 1.9 102790 73
2004-03-10 08:58:00 51°26.272 2°58.164 17.1 24 1.9 102790 73
2004-03-10 08:58:06 51°26.29 2°58.176 16.1 23 1.9 102790 73
2004-03-10 08:58:10 51°26.302 2°58.185 15.9 25 1.9 102790 74
2004-03-10 08:58:16 51°26.32 2°58.197 15.3 26 1.9 102790 74
2004-03-10 08:58:20 51°26.332 2°58.206 15.2 22 1.9 102780 73
2004-03-10 08:58:24 51°26.344 2°58.214 14.9 20 1.9 102780 73
2004-03-10 08:58:30 51°26.362 2°58.227 15.7 29 1.9 102780 72
2004-03-10 08:58:36 51°26.38 2°58.241 14.8 20 1.9 102780 72
2004-03-10 08:58:40 51°26.392 2°58.25 16.6 24 1.9 102790 72
2004-03-10 08:58:46 51°26.41 2°58.262 15 23 1.9 102790 72
2004-03-10 08:58:50 51°26.422 2°58.271 14.9 24 1.9 102790 72
2004-03-10 08:58:55 51°26.437 2°58.282 15.4 24 1.9 102790 72
2004-03-10 08:59:00 51°26.452 2°58.293 15.9 20 1.9 102790 72
2004-03-10 08:59:06 51°26.47 2°58.305 15.5 21 1.9 102790 72
2004-03-10 08:59:10 51°26.482 2°58.314 16.3 19 1.9 102780 72
2004-03-10 08:59:16 51°26.5 2°58.328 15.6 23 1.9 102780 72
2004-03-10 08:59:20 51°26.511 2°58.337 15.6 23 1.9 102790 72
2004-03-10 08:59:26 51°26.529 2°58.351 15.7 22 1.9 102790 72
2004-03-10 08:59:30 51°26.541 2°58.36 16.1 24 1.9 102790 73
2004-03-10 08:59:35 51°26.556 2°58.372 15.3 24 1.9 102790 73
2004-03-10 08:59:40 51°26.57 2°58.384 14.4 19 1.9 102800 72
2004-03-10 08:59:46 51°26.587 2°58.399 14.6 22 1.9 102800 72
2004-03-10 08:59:50 51°26.599 2°58.408 14.2 22 1.9 102790 73
2004-03-10 08:59:56 51°26.617 2°58.422 14.5 21 1.9 102790 73
2004-03-10 09:00:00 51°26.629 2°58.432 14.5 23 1.9 102790 73
2004-03-10 09:00:06 51°26.646 2°58.446 14.9 22 1.9 102790 73
2004-03-10 09:00:10 51°26.658 2°58.456 13.9 24 1.9 102800 73
2004-03-10 09:00:16 51°26.676 2°58.47 14.7 29 1.9 102800 73
2004-03-10 09:00:20 51°26.688 2°58.479 15.2 24 1.9 102800 74
2004-03-10 09:00:26 51°26.705 2°58.493 16.2 29 1.9 102800 74
2004-03-10 09:00:30 51°26.717 2°58.502 14.6 29 1.9 102780 74
2004-03-10 09:00:35 51°26.732 2°58.514 14.2 26 1.9 102780 74
2004-03-10 09:00:40 51°26.746 2°58.525 15.8 23 1.9 102790 74
2004-03-10 09:00:46 51°26.764 2°58.539 15.2 25 1.9 102790 74
2004-03-10 09:00:50 51°26.775 2°58.549 15.6 25 1.9 102780 74
2004-03-10 09:00:56 51°26.793 2°58.563 15.4 31 1.9 102780 74
2004-03-10 09:01:00 51°26.804 2°58.573 15.9 28 1.9 102780 74
2004-03-10 09:01:06 51°26.822 2°58.587 15.6 26 1.9 102780 74
2004-03-10 09:01:10 51°26.833 2°58.597 15.2 26 2 102780 74
2004-03-10 09:01:15 51°26.848 2°58.609 15.8 21 2 102780 74
2004-03-10 09:01:20 51°26.862 2°58.62 16.5 21 1.9 102780 74
2004-03-10 09:01:26 51°26.88 2°58.635 16.8 25 1.9 102780 74
2004-03-10 09:01:30 51°26.891 2°58.645 15.8 19 1.9 102780 74
2004-03-10 09:01:35 51°26.905 2°58.656 17 23 1.9 102780 74
2004-03-10 09:01:40 51°26.919 2°58.668 15.2 20 1.9 102790 75
2004-03-10 09:01:44 51°26.931 2°58.677 16.8 16 1.9 102790 75
2004-03-10 09:01:50 51°26.948 2°58.692 17 18 1.9 102780 74
2004-03-10 09:01:56 51°26.965 2°58.705 15.9 23 1.9 102780 74
2004-03-10 09:02:00 51°26.977 2°58.715 16.1 18 2 102800 74
2004-03-10 09:02:06 51°26.994 2°58.729 16.8 18 2 102800 74
2004-03-10 09:02:10 51°27.006 2°58.738 14.8 21 2 102800 75
2004-03-10 09:02:15 51°27.02 2°58.75 15.5 20 2 102800 75
2004-03-10 09:02:20 51°27.035 2°58.762 15.3 21 1.9 102780 74
2004-03-10 09:02:25 51°27.049 2°58.774 14.9 19 1.9 102780 74
2004-03-10 09:02:30 51°27.064 2°58.787 15.1 20 1.9 102790 74
2004-03-10 09:02:36 51°27.081 2°58.801 16 18 1.9 102790 74
2004-03-10 09:02:40 51°27.093 2°58.812 15.3 20 1.9 102790 74
2004-03-10 09:02:45 51°27.107 2°58.825 14.7 16 1.9 102790 74
2004-03-10 09:02:51 51°27.124 2°58.841 16.6 15 2 102790 75
2004-03-10 09:02:56 51°27.138 2°58.855 16.1 14 2 102790 75
2004-03-10 09:03:00 51°27.149 2°58.866 15.6 14 2 102800 75
2004-03-10 09:03:06 51°27.166 2°58.881 16.4 16 2 102800 75
2004-03-10 09:03:10 51°27.177 2°58.892 15.5 17 1.9 102790 75
2004-03-10 09:03:16 51°27.193 2°58.908 15.4 17 1.9 102790 75
2004-03-10 09:03:20 51°27.204 2°58.92 14.9 17 2 102790 74
2004-03-10 09:03:26 51°27.221 2°58.936 15.9 15 2 102790 74
2004-03-10 09:03:30 51°27.231 2°58.947 15.1 20 1.9 102800 74
2004-03-10 09:03:36 51°27.248 2°58.963 15.4 20 1.9 102800 74
2004-03-10 09:03:40 51°27.259 2°58.974 14.7 22 1.9 102790 74
2004-03-10 09:03:46 51°27.275 2°58.991 13.6 24 1.9 102790 74
2004-03-10 09:03:50 51°27.286 2°59.001 15.2 21 1.9 102800 74
2004-03-10 09:03:56 51°27.303 2°59.018 16.1 23 1.9 102800 74
2004-03-10 09:04:00 51°27.314 2°59.028 16.2 23 2 102800 74
2004-03-10 09:04:06 51°27.33 2°59.045 17 25 2 102800 74
2004-03-10 09:04:10 51°27.341 2°59.055 17.5 24 2 102790 75
2004-03-10 09:04:16 51°27.358 2°59.072 17.2 22 2 102790 75
2004-03-10 09:04:20 51°27.369 2°59.083 16.6 25 2 102790 75
2004-03-10 09:04:26 51°27.385 2°59.099 16.3 26 2 102790 75
2004-03-10 09:04:30 51°27.396 2°59.109 16.1 27 1.9 102790 75
2004-03-10 09:04:36 51°27.412 2°59.126 16 25 1.9 102790 75
2004-03-10 09:04:40 51°27.423 2°59.136 16.2 24 1.9 102790 74
2004-03-10 09:04:44 51°27.435 2°59.147 15.3 23 1.9 102790 74
2004-03-10 09:04:50 51°27.451 2°59.164 16 23 1.9 102790 74
2004-03-10 09:04:55 51°27.464 2°59.178 15.6 20 1.9 102790 74
2004-03-10 09:05:00 51°27.477 2°59.195 15.6 16 1.9 102770 74
2004-03-10 09:05:06 51°27.492 2°59.215 15.1 17 1.9 102770 74
2004-03-10 09:05:10 51°27.501 2°59.23 16 15 1.9 102790 74
2004-03-10 09:05:16 51°27.515 2°59.252 16 10 1.9 102790 74
2004-03-10 09:05:20 51°27.524 2°59.267 16.3 16 1.9 102790 74
2004-03-10 09:05:26 51°27.537 2°59.29 14.8 10 1.9 102790 74
2004-03-10 09:05:30 51°27.546 2°59.305 17 8 1.9 102770 74